Flag for Bermuda Weather past 2 weeks in Hamilton, Bermuda

Now
82 °F

Passing clouds.


Feels Like: 91 °F
Forecast: 80 / 85 °F
Wind: 12 mph from Northwest

Location: Bermuda

Current Time: Aug 29, 2015 at 12:41:56 AM

Latest Report: Aug 28, 2015 at 11:55 PM


Visibility: N/A

Pressure: 30.15 "Hg

Humidity: 84%

Dew point: 77 °F

Location of HamiltonLocation

Historic Weather in Hamilton — Graph

°F

Hamilton temperature yesterday

Maximum temperature yesterday: 86 °F (at 10:55 AM)
Minimum temperature yesterday: 81 °F (at 2:55 AM)
Average temperature yesterday: 83 °F

Past Weeks' High & Low Weather Summary

 TemperatureHumidityPressure
High86 °F (Aug 14, 1:55 PM)94% (Aug 18, 10:02 AM)30.18 "Hg (Aug 18, 10:02 AM)
Low54 °F (Aug 23, 12:55 PM)66% (Aug 14, 2:55 PM)29.86 "Hg (Aug 22, 2:55 AM)
Average81 °F76%30.04 "Hg
* Reported Aug 13 10:55 PM — Aug 28 10:55 PM, Hamilton, Weather by CustomWeather, © 2015

Note: Actual official high and low records may vary slightly from our data, if they occured in-between our weather recording intervals... More about our weather records

Advertising

Hamilton weather history for previous 24 hours

 ConditionsComfort  
Time TempWeatherWind HumidityBarometerVisibility
10:55 PM
Fri, Aug 28
82 °FPassing clouds.10 mph84%30.15 "HgN/A
9:55 PM82 °FPassing clouds.12 mph84%30.15 "HgN/A
8:55 PM82 °FPassing clouds.10 mph84%30.12 "HgN/A
7:55 PM84 °FScattered clouds.12 mph79%30.12 "HgN/A
6:55 PM84 °FPassing clouds.13 mph79%30.12 "HgN/A
5:55 PM86 °FPassing clouds.14 mph75%30.12 "HgN/A
4:55 PM86 °FScattered clouds.13 mph70%30.09 "HgN/A
3:55 PM86 °FScattered clouds.13 mph70%30.12 "HgN/A
2:55 PM86 °FScattered clouds.10 mph70%30.12 "HgN/A
1:55 PM86 °FScattered clouds.9 mph70%30.12 "HgN/A
12:55 PM86 °FScattered clouds.9 mph75%30.12 "HgN/A
11:55 AM84 °FScattered clouds.9 mph79%30.15 "HgN/A
10:55 AM86 °FScattered clouds.8 mph75%30.15 "HgN/A
9:55 AM84 °FScattered clouds.7 mph79%30.12 "HgN/A
8:55 AM82 °FPassing clouds.6 mph79%30.12 "HgN/A
7:55 AM82 °FPassing clouds.6 mph79%30.12 "HgN/A
6:55 AM81 °FPassing clouds.7 mph84%30.09 "HgN/A
5:55 AM81 °FPassing clouds.7 mph79%30.09 "HgN/A
4:55 AM81 °FPassing clouds.7 mph84%30.09 "HgN/A
3:55 AM81 °FPassing clouds.7 mph84%30.09 "HgN/A
2:55 AM81 °FPassing clouds.8 mph84%30.09 "HgN/A
1:55 AM82 °FPassing clouds.8 mph79%30.09 "HgN/A
12:55 AM82 °FPassing clouds.9 mph79%30.09 "HgN/A
Weather by CustomWeather, © 2015

See weather overviewHow to use our weather pages